Location: La Comballaz
(46.3780°N, 7.0817°E)
Time: 23:23:16
(UTC+00:00)

CZ-2C R/B - Pass Details

Date: 09 April 2020
Orbit: 785 x 870 km, 98.3° (Epoch: 29 May)

Event Time Altitude Azimuth Distance (km) Brightness Sun altitude
Rises 20:57:26 0° 5° (N) 3,289 6.4 -25.5°
Reaches altitude 10° 20:59:59 10° 355° (N) 2,356 5.7 -25.8°
Maximum altitude 21:04:26 30° 295° (WNW) 1,392 4.4 -26.3°
Drops below altitude 10° 21:08:53 10° 236° (SW) 2,360 5.1 -26.9°
Sets 21:11:28 0° 226° (SW) 3,295 5.7 -27.1°
